Location: St. Louis
(38.6270°N, 90.1994°W)
Time: 23:27:02
(UTC-05:00)

OPS 7613 P/L 1 - Pass Details

Date: 10 July 2022
Orbit: 887 x 911 km, 70.0° (Epoch: 16 August)

Event Time Altitude Azimuth Distance (km) Brightness Sun altitude
Rises 02:34:58 0° 348° (NNW) 3,506 12.2 -25.7°
Reaches altitude 10° 02:38:08 10° 4° (N) 2,560 11.6 -25.5°
Maximum altitude 02:42:29 21° 52° (NE) 1,891 10.7 -25.1°
Drops below altitude 10° 02:46:50 10° 100° (E) 2,546 10.9 -24.7°
Sets 02:49:57 0° 116° (ESE) 3,482 11.4 -24.5°
